Aérodrome :
LOGIN :

S'inscrire | Disclaimer

   EN    FR    IT 

 










Légende :    VFR   VFR Marginal   IFR   IFR Intensif   IFR Très Intensif
Visi : 
Plafond : 
>= 8 km
>= 3000ft
5 à 8 km
1000 à 3000 ft
1500m à 5 km
500 à 1000 ft
800 à 1500m
200 à 500 ft
< 800m
< 200 ft
Symboles :   Orages  Brouillard  Fortes neiges  Fortes précipitations  Vent > 20 kt
SIGMETs :   Divers  Orages  Givrage  Turbulence  Onde Orograph.  Cendres Volcan.






- Altitude de l'aérodrome : 1947 ft
- Code IATA : OBF


EDMO - Oberpfaffenhofen

DERNIER METAR :
  • 061720Z AUTO 11003KT 9999 // SCT023/// OVC066/// 14/13 Q1007

METARs EXPIRÉS :
  • 061650Z AUTO 08003KT 9999 // OVC046/// 13/13 Q1007
  • 061620Z AUTO 36008KT 9999 // SCT034/// BKN047/// OVC055/// 14/12 Q1007
  • 061550Z AUTO 01006KT 9999 // OVC043/// 15/12 Q1006
  • 061520Z 35009KT 9999 FEW041 BKN048 16/12 Q1006
  • 061450Z 35010KT 9999 FEW041 BKN048 17/13 Q1006
  • 061420Z 33009KT 9999 BKN043 17/11 Q1006

Prévision TAF périmée.



MET'MAP, la Météo Aéronautique d'un coup d'oeil ! - Copyright ORBIFLY Décembre 2007 - Disclaimer

ORBIFLY MET'MAP TEAM :

Programmation & Développement : Alexandra Zaïnal
Sur une idée originale de : Baudouin d'Aumeries
Assistance à la programmation : Marc-Olivier Méhu
Soutien technique & logistique : Manuel Goepfert

Contact : metmap@orbifly.com




SOURCES & CREDITS :

   NOAA